Flag Weather past 2 weeks in Hammerfest, Norway

Now
32 °F

Scattered showers. Broken clouds.


Feels Like: 32 °F
Forecast: 32 / 35 °F
Wind: 2 mph from North

Location: Hammerfest

Current Time: Oct 31, 2014 at 1:24:31 PM

Latest Report: Oct 31, 2014 at 12:50 PM


Visibility: N/A

Pressure: 30.12 "Hg

Humidity: 80%

Dew point: 27 °F

Location of HammerfestLocation

Historic Weather in Hammerfest — Graph

°F

Hammerfest temperature yesterday

Maximum temperature yesterday: 36 °F (at 12:50 AM)
Minimum temperature yesterday: 30 °F (at 11:50 PM)
Average temperature yesterday: 33 °F

Past Weeks' High & Low Weather Summary

 TemperatureHumidityPressure
High43 °F (Oct 26, 11:50 AM)100% (Oct 16, 6:50 PM)30.09 "Hg (Oct 16, 6:50 PM)
Low21 °F (Oct 22, 3:50 AM)43% (Oct 21, 7:50 PM)28.85 "Hg (Oct 27, 12:50 PM)
Average34 °F78%29.63 "Hg
* Reported Oct 16 12:50 PM — Oct 31 11:50 AM, Hammerfest, Weather by CustomWeather, © 2014

Note: Actual official high and low records may vary slightly from our data, if they occured in-between our weather recording intervals... More about our weather records

Advertising

Hammerfest weather history for previous 24 hours

 ConditionsComfort  
Time TempWeatherWind HumidityBarometerVisibility
11:50 AM
Oct 31
28 °FScattered showers. Broken clouds.1 mph100%30.09 "Hg6 mi
10:50 AM30 °FScattered showers. Scattered clouds.2 mph93%30.09 "HgN/A
9:50 AM32 °FScattered showers. Broken clouds.3 mph93%30.07 "Hg6 mi
8:50 AM32 °FScattered showers. Broken clouds.6 mph87%30.04 "HgN/A
7:50 AM34 °FScattered showers. Partly cloudy.6 mph81%30.04 "HgN/A
6:50 AM32 °FSnow showers. Passing clouds.6 mph87%30.01 "Hg1 mi
5:50 AM30 °FScattered showers. Partly cloudy.6 mph86%29.98 "HgN/A
4:50 AM32 °FSnow flurries. Partly cloudy.6 mph80%29.95 "HgN/A
3:50 AM32 °FMostly cloudy.8 mph80%29.95 "HgN/A
2:50 AM34 °FPassing clouds.9 mph81%29.95 "HgN/A
1:50 AM32 °FScattered showers. Passing clouds.10 mph87%29.92 "HgN/A
12:50 AM32 °FPassing clouds.7 mph75%29.89 "HgN/A
11:50 PM
Oct 30
30 °FSnow flurries. Partly cloudy.5 mph86%29.86 "HgN/A
10:50 PM32 °FSnow flurries. Partly cloudy.14 mph87%29.86 "Hg2 mi
9:50 PM34 °FScattered showers. Partly cloudy.12 mph81%29.83 "HgN/A
8:50 PM34 °FPartly cloudy.13 mph81%29.80 "HgN/A
7:50 PM32 °FSnow flurries. Dense fog.6 mph87%29.77 "Hg2 mi
6:50 PM34 °FPartly cloudy.8 mph81%29.74 "HgN/A
5:50 PM34 °FScattered showers. Partly cloudy.7 mph81%29.71 "HgN/A
4:50 PM32 °FScattered showers. Partly cloudy.15 mph93%29.71 "Hg4 mi
3:50 PM32 °FScattered showers. Partly cloudy.9 mph87%29.68 "HgN/A
2:50 PM32 °FSnow showers. Dense fog.7 mph93%29.65 "Hg1 mi
1:50 PM34 °FScattered showers. Broken clouds.12 mph75%29.62 "HgN/A
Weather by CustomWeather, © 2014

See weather overviewHow to use our weather pages